Flag for Norway Weather past 2 weeks in Porsgrunn, Norway

Now
63 °F

Mild.


Feels Like: 63 °F
Forecast: 54 / 78 °F
Wind: 8 mph from Southwest

Location: Jomfruland Fyr

Current Time: Jul 3, 2015 at 7:47:58 PM

Latest Report: Jul 3, 2015 at 7:00 PM


Visibility: N/A

Pressure: 30.21 "Hg

Humidity: 91%

Dew point: 61 °F

Location of PorsgrunnLocation

Historic Weather in Porsgrunn — Graph

°F

Porsgrunn temperature yesterday

Maximum temperature yesterday: 69 °F (at 6:00 PM)
Minimum temperature yesterday: 55 °F (at 4:00 AM)
Average temperature yesterday: 64 °F

Past Weeks' High & Low Weather Summary

 TemperatureHumidityPressure
High69 °F (Jun 30, 11:00 AM)95% (Jul 1, 5:00 AM)30.36 "Hg (Jul 1, 5:00 AM)
Low50 °F (Jun 22, 3:00 AM)29% (Jun 25, 8:00 PM)29.62 "Hg (Jun 18, 6:00 PM)
Average60 °F73%29.94 "Hg
* Reported Jun 18 6:00 PM — Jul 3 6:00 PM, Porsgrunn, Weather by CustomWeather, © 2015

Note: Actual official high and low records may vary slightly from our data, if they occured in-between our weather recording intervals... More about our weather records

Advertising

Porsgrunn weather history for previous 24 hours

 ConditionsComfort  
Time TempWeatherWind HumidityBarometerVisibility
6:00 PM
Fri, Jul 3
66 °FMild.8 mph82%30.22 "HgN/A
5:00 PM67 °FMild.6 mph77%30.23 "HgN/A
4:00 PM67 °FMild.6 mph80%30.24 "HgN/A
3:00 PM68 °FMild.5 mph72%30.25 "HgN/A
2:00 PM68 °FMild.3 mph62%30.25 "HgN/A
1:00 PM68 °FMild.2 mph64%30.25 "HgN/A
12:00 PM68 °FMild.2 mph67%30.26 "HgN/A
11:00 AM67 °FMild.1 mph70%30.25 "HgN/A
10:00 AM66 °FMild.2 mph75%30.25 "HgN/A
9:00 AM64 °FMild.3 mph80%30.25 "HgN/A
8:00 AM65 °FMild.2 mph74%30.25 "HgN/A
7:00 AM65 °FMild.2 mph76%30.25 "HgN/A
6:00 AM63 °FMild.2 mph80%30.26 "HgN/A
5:00 AM61 °FCool.2 mph84%30.28 "HgN/A
4:00 AM61 °FCool.2 mph84%30.28 "HgN/A
3:00 AM61 °FCool.2 mph77%30.29 "HgN/A
2:00 AM61 °FCool.2 mph81%30.28 "HgN/A
1:00 AM60 °FCool.1 mph78%30.29 "HgN/A
12:00 AM61 °FCool.1 mph72%30.30 "HgN/A
11:00 PM
Thu, Jul 2
62 °FCool.1 mph70%30.31 "HgN/A
10:00 PM64 °FMild.1 mph70%30.31 "HgN/A
9:00 PM68 °FMild.1 mph61%30.30 "HgN/A
8:00 PM68 °FMild.2 mph61%30.30 "HgN/A
7:00 PM69 °FMild.2 mph60%30.30 "HgN/A
Weather by CustomWeather, © 2015

See weather overviewHow to use our weather pages